Location: *
(45.8589°N, 4.7139°E)
Time: 18:53:39
(UTC+00:00)

Cosmos 1076 Rocket - Pass Details

Date: 09 April 2020
Orbit: 590 x 612 km, 82.5° (Epoch: 31 May)

Event Time Altitude Azimuth Distance (km) Brightness Sun altitude
Rises 19:38:50 0° 0° (N) 2,850 7.3 -13.6°
Reaches altitude 10° 19:41:18 10° 12° (NNE) 1,946 6.3 -14.0°
Maximum altitude 19:45:03 29° 73° (ENE) 1,117 4.5 -14.6°
Enters shadow 19:46:20 24° 104° (ESE) 1,243 4.5 -14.8°
